Regional Weather Roundup
Issued by NWS

Home | Current Version | Previous Version | Text Only | Print | Product List | Glossary On
Versions: 1 2 3 4 5 6 7 8 9 10 11 12 13 14 15 16 17 18 19 20 21 22 23 24 25 26 27 28 29 30 31 32 33 34 35 36 37 38 39 40 41 42 43 44 45 46 47 48 49 50
000
ASUS45 KTFX 221504
RWRMT
MONTANA HOURLY WEATHER ROUNDUP
NATIONAL WEATHER SERVICE GREAT FALLS MT
904 AM MDT WED OCT 22 2014

NOTE: "FAIR" INDICATES FEW OR NO CLOUDS BELOW 12000 FEET WITH NO
SIGNIFICANT WEATHER AND/OR OBSTRUCTIONS TO VISIBILITY.

* THESE STATIONS ARE NOT UNDER NWS QUALITY CONTROL. THEY DO NOT
   REPORT WEATHER SUCH AS PRECIPITATION OR FOG.

MTZ001>007-043-221600-
WEST OF THE DIVIDE
CITY           SKY/WX    TMP DP  RH WIND       PRES   REMARKS
* ESSEX        N/A       40  39  96 N/A        N/A
* LINCOLN      N/A       37  33  85 SW3G11     N/A
* POLSON       N/A       37  36  96 SE1        N/A
* RONAN APT    PTCLDY    34  30  85 N/A        N/A
* SEELEY LAKE  N/A       29  28  96 N/A        N/A
* THOMP F APT  PTSUNNY   33  30  89 NE2        N/A
$$

MTZ008-052>055-221600-
SOUTHWEST MONTANA
CITY           SKY/WX    TMP DP  RH WIND       PRES   REMARKS
* THREE FORKS  SUNNY     28  12  51 N/A        N/A
* BOULDER HILL N/A       34  26  73 SW10       N/A   WCI  26
* MONIDA PASS  N/A       30  30 100 E9         N/A   WCI  22
* RAYNOLDS PAS N/A       33  19  56 S9         N/A   WCI  25
* WHITEHALL    N/A       34  29  82 S5G10      N/A   WCI  29
* WISE RIVER   N/A       27  26  96 S4         N/A
$$

MTZ009>010-012-014-046-048-049-054-221600-
EAST SLOPES AND CENTRAL MONTANA
CITY           SKY/WX    TMP DP  RH WIND       PRES   REMARKS
* CONRAD       SUNNY     34  30  85 N/A        N/A
* DEARBORN     N/A       47  31  54 SE4G16     N/A
* EAST GLACIER N/A       42  27  55 W32G45     N/A
* MONARCH      N/A       39  23  53 SW18G24    N/A   WCI  30
* PENDROY      N/A       40  26  57 SW9        N/A   WCI  34
* ROGERS PASS  N/A       37  31  79 E17G27     N/A   WCI  27
* SAINT MARY   N/A       43  30  60 SW8G27     N/A
* SWEET GRASS  N/A       42  31  65 SW15G22    N/A
$$

MTZ011-013-016-021-035-040-045-047-050-051-221600-
NORTH CENTRAL MONTANA
CITY           SKY/WX    TMP DP  RH WIND       PRES   REMARKS
* CHINOOK      PTCLDY    50  36  59 SW12G17   29.88R
* FORT BENTON  SUNNY     46  34  63 SW6       29.95R
* CHESTER      N/A       37  32  82 SW7G12     N/A   WCI  32
* DENTON       N/A       40  32  73 S6         N/A   WCI  36
* GEYSER       N/A       45  29  54 SW16       N/A
* JUDITH GAP   N/A       41  32  70 SW15G21    N/A
* LOMA         N/A       42  35  76 W8         N/A
$$

MTZ017>020-022>027-061-062-221600-
NORTHEAST MONTANA
CITY           SKY/WX    TMP DP  RH WIND       PRES   REMARKS
JORDAN         SUNNY     46  34  63 W12       29.91R
* BEAVER HILL  N/A       47  38  71 SW11G17    N/A
* CIRCLE       N/A       46  38  74 SW11       N/A
* LINDSAY DVD  N/A       47  35  63 W20G31     N/A
* NAVAJO       N/A       49  45  86 W21G30     N/A
$$

MTZ028>042-056>058-221600-
SOUTHCENTRAL AND SOUTHEAST MONTANA
CITY           SKY/WX    TMP DP  RH WIND       PRES   REMARKS
* LAUREL APT   SUNNY     39  25  57 N/A        N/A
* ROUNDUP APT  SUNNY     43  28  56 N/A        N/A
* ALZADA       N/A       45  35  68 SW7        N/A
* HYSHAM       N/A       44  29  56 W5         N/A
* LAME DEER    N/A       41  29  62 W10        N/A
* REED POINT   N/A       45  28  51 W6         N/A
* ROSCOE HILL  N/A       47  17  30 SW6G22     N/A
$$

REGIONAL REPORTS...DAKOTAS
CITY           SKY/WX    TMP DP  RH WIND       PRES   REMARKS
BUFFALO SD     PTSUNNY   48  37  66 W13       29.89R
$$

REGIONAL REPORTS...WYOMING/IDAHO/WASHINGTON
CITY           SKY/WX    TMP DP  RH WIND       PRES   REMARKS
YELLOWSTONE LA CLOUDY    30  28  92 CALM      30.20R

$$




USA.gov is the U.S. government's official web portal to all federal, state and local government web resources and services.